[[{"header":{"parameterUnit":"m.s-1","parameterCategory":1,"la1":30.2991,"la2":30.254,"lo1":-89.0895,"lo2":-89.0444,"dy":0.0017,"dx":0.0017,"nx":28,"ny":28,"refTime":"2024-03-20T21:00:00:Z","depth":0,"parameterNumber":2,"parameterNumberName":"U-component_of_WINDS"},"data":[0,0,0,0,0,0,0,0,0,0,0,0,0,0,0,0,0,0,0,0,0,0,0,0,0,0,0,0,0,0,0,0,0,0,0,0,0,0,0,0,0,0,0,0,0,0,0,0,0,0,0,0,0,0,0,0,0,0,-10.0135,-10.0136,0,-10.0251,-10.0253,-10.0254,-10.0107,-10.0102,-10.0096,-10.0091,-10.0207,-10.0215,-10.0223,0,0,0,0,0,0,0,0,0,0,0,0,0,-9.9781,-9.9788,-10.0135,-10.0136,-10.0138,-10.0251,-10.0253,-10.0254,-10.0108,-10.0102,-10.0095,-10.0089,-10.0204,-10.0214,-10.0223,0,0,0,0,0,0,0,0,0,0,0,0,0,-9.992,-9.979,-10.0134,-10.0078,-10.0075,-10.0251,-10.0253,-10.0255,-10.0109,-10.0101,-10.0093,-10.0086,-10.0201,-10.0213,-10.0225,-10.046,0,0,-10.0262,-10.0267,0,0,0,0,0,0,0,0,-9.9912,-9.9933,-10.0085,-10.0083,-10.0079,-10.0156,-10.017,-10.0323,-10.0111,-10.0096,-10.0091,-10.0082,-10.0196,-10.0208,-10.0248,-10.0466,-10.0471,-10.0263,-10.027,-10.0275,-10.0279,0,0,0,0,0,0,0,-9.9902,-9.9927,-10.018,-10.0088,-10.0084,-10.0046,-10.0057,-10.0198,-10.019,-10.0097,-10.0086,-10.0102,-10.0193,-10.0236,-10.0249,-10.0472,-10.0262,-10.0273,-10.0281,-10.0285,-10.0886,-10.0895,0,0,0,0,0,0,-9.99,-9.992,-10.0177,-10.0184,-9.9974,-10.0059,-10.0071,-10.014,-10.0188,-10.0188,-10.0109,-10.0095,-10.022,-10.0235,-10.0253,-10.0529,-10.0275,-10.0287,-10.0294,-10.0878,-10.0888,-10.0898,0,0,0,0,0,0,-9.9893,-9.9924,-10.0172,-10.0049,-10.0078,-10.0073,-10.0152,-10.0146,-10.0189,-10.0197,-10.0194,-10.0155,-10.0214,-10.0236,-10.0409,-10.0531,-10.0292,-10.0303,-10.0867,-10.0881,-10.0893,-10.1085,0,0,0,0,0,0,-9.9883,-9.9923,-10.0013,-10.0052,-10.0085,-10.0329,-10.0159,-10.0154,-10.0211,-10.0194,-10.024,-10.024,-10.0209,-10.0392,-10.0421,-10.0543,-10.0312,-10.0856,-10.0873,-10.0889,-10.1068,-10.1103,-10.1133,0,0,0,0,0,-9.9871,-10.0062,-10.0019,-10.005,-10.0198,-10.0336,-10.0354,-10.0317,-10.0222,-10.0311,-10.0316,-10.0238,-10.0514,-10.0411,-10.0443,-10.057,-10.0848,-10.0869,-10.0888,-10.1053,-10.1096,-10.1133,0,0,0,0,0,0,-10.0036,-10.0066,-10.0018,-10.0228,-10.0281,-10.0311,-10.0423,-10.0364,-10.0443,-10.0424,-10.0372,-10.0384,-10.0569,-10.0587,-10.0472,-10.0799,-10.0665,-10.0692,-10.078,-10.0821,-10.0853,-10.0843,-10.0323,0,0,0,0,0,-10.0097,-10.0208,-10.0228,-10.0411,-10.044,-10.0428,-10.0486,-10.0453,-10.0505,-10.0526,-10.0543,-10.0596,-10.0693,-10.0759,-10.085,-10.1071,-10.1077,-10.1174,-10.1207,-10.1234,-10.1256,-10.1372,-10.1414,-10.0962,-10.0962,-10.0961,0,0,-10.0223,-10.0254,-10.0327,-10.0445,-10.0481,-10.0595,-10.0447,-10.0574,-10.0657,-10.0544,-10.0708,-10.0724,-10.0779,-10.0977,-10.1065,-10.0998,-10.1383,-10.1259,-10.128,-10.1288,-10.1397,-10.1439,-10.1477,-10.0975,-10.0973,-10.0971,0,0,-10.0511,-10.0547,-10.0702,-10.0742,-10.08,-10.0791,-10.0829,-10.0869,-10.0874,-10.1039,-10.0956,-10.1054,-10.1225,-10.1266,-10.131,-10.1615,-10.1545,-10.1646,-10.1815,-10.1929,-10.1964,-10.1996,-10.2101,-10.214,-10.1669,-10.167,-10.167,0,-10.066,-10.083,-10.0789,-10.0922,-10.0975,-10.088,-10.1035,-10.1076,-10.1161,-10.1199,-10.1123,-10.1334,-10.1365,-10.157,-10.1644,-10.1684,-10.1723,-10.1638,-10.1963,-10.1994,-10.2022,-10.2122,-10.2162,-10.1681,-10.168,-10.1679,-10.1678,0,-10.1008,-10.1128,-10.1246,-10.1331,-10.1398,-10.1541,-10.152,-10.1593,-10.1554,-10.1552,-10.172,-10.1754,-10.1849,-10.1896,-10.1859,-10.2096,-10.2052,-10.1971,-10.1834,-10.2078,-10.217,-10.2209,-10.1698,-10.1694,-10.169,-10.1687,0,0,-10.14,-10.1462,-10.1506,-10.1542,-10.16,-10.169,-10.1829,-10.1923,-10.1984,-10.2047,-10.216,-10.2307,-10.2232,-10.2282,-10.2249,-10.2349,-10.2585,-10.2255,-10.2256,-10.2312,-10.2844,-10.2901,-10.2947,-10.254,-10.2548,-10.2553,-10.2838,0,-10.1686,-10.1927,-10.1894,-10.2125,-10.2232,-10.2144,-10.2265,-10.2312,-10.2315,-10.2405,-10.2407,-10.2511,-10.2406,-10.2435,-10.2531,-10.2536,-10.269,-10.2515,-10.2642,-10.2647,-10.2627,-10.2995,-10.3057,-10.3324,-10.2874,-10.288,-10.2885,0,-10.205,-10.2126,-10.2368,-10.2408,-10.2451,-10.2561,-10.2643,-10.2732,-10.2784,-10.2778,-10.2835,-10.2784,-10.292,-10.2785,-10.2971,-10.2853,-10.2903,-10.2914,-10.2923,-10.293,-10.2778,-10.3009,-10.3409,-10.3447,-10.2942,-10.2938,-10.2933,0,-10.2307,-10.2471,-10.2635,-10.267,-10.2722,-10.28,-10.2825,-10.2868,-10.2927,-10.2999,-10.3035,-10.3123,-10.317,-10.3238,-10.3212,-10.3116,-10.3403,-10.3265,-10.3399,-10.34,-10.346,-10.3456,-10.387,-10.35,-10.3499,-10.3498,-10.3498,0,-10.2627,-10.2778,-10.2751,-10.2853,-10.3018,-10.2979,-10.3143,-10.3157,-10.3197,-10.3298,-10.3228,-10.3324,-10.3285,-10.3378,-10.3358,-10.3514,-10.3537,-10.3534,-10.3526,-10.3538,-10.3538,-10.3568,-10.3547,-10.3509,-10.3507,-10.3505,-10.3503,0,-10.2941,-10.293,-10.3104,-10.3139,-10.3151,-10.3271,-10.33,-10.3394,-10.3391,-10.352,-10.3548,-10.3543,-10.3649,-10.3631,-10.3748,-10.3734,-10.3928,-10.3899,-10.3911,-10.3903,-10.4036,-10.4023,-10.448,-10.4537,-10.4134,-10.4138,-10.4141,0,-10.3144,-10.3258,-10.3305,-10.3368,-10.3399,-10.3502,-10.3561,-10.3527,-10.3591,-10.3659,-10.3744,-10.3844,-10.3921,-10.4095,-10.4101,-10.419,-10.416,-10.4315,-10.4173,-10.4181,-10.4158,-10.415,-10.416,-10.4341,-10.4346,-10.435,-10.4353,0,-10.3505,-10.3493,-10.3582,-10.367,-10.3742,-10.3809,-10.3869,-10.3924,-10.3895,-10.3971,-10.4079,-10.4139,-10.4259,-10.4358,-10.4441,-10.4464,-10.4403,-10.4398,-10.4433,-10.4444,-10.4445,-10.4443,-10.3983,-10.4387,-10.4383,-10.4381,-10.4379,-10.4378,-10.3767,-10.3863,-10.3911,-10.4012,-10.4053,-10.4111,-10.42,-10.421,-10.4299,-10.4394,-10.4369,-10.4491,-10.4538,-10.4643,-10.4676,-10.477,-10.4712,-10.4764,-10.4776,-10.4789,-10.4803,-10.4434,-10.4785,-10.4784,-10.4783,-10.4782,-10.4782,0,-10.412,-10.4147,-10.4241,-10.4327,-10.4406,-10.4344,-10.4407,-10.4476,-10.4585,-10.4635,-10.4713,-10.4836,-10.4932,-10.4946,-10.5037,-10.5108,-10.5083,-10.5133,-10.5125,-10.5131,-10.4851,-10.481,-10.5152,-10.5152,-10.5152,-10.5152,-10.5152,-10.5152,-10.4313,-10.4472,-10.4467,-10.4645,-10.467,-10.4789,-10.483,-10.4882,-10.4921,-10.5062,-10.5142,-10.5151,-10.5186,-10.5279,-10.5363,-10.5365,-10.54,-10.546,-10.5451,-10.5188,-10.5151,-10.5116,-10.5077,-10.5469,-10.547,-10.5723,-10.5725,-10.5727]},{"header":{"parameterUnit":"m.s-1","parameterCategory":1,"la1":30.2991,"la2":30.254,"lo1":-89.0895,"lo2":-89.0444,"dy":0.0017,"dx":0.0017,"nx":28,"ny":28,"refTime":"2024-03-20T21:00:00:Z","depth":0,"parameterNumber":3,"parameterNumberName":"V-component_of_WINDS"},"data":[0,0,0,0,0,0,0,0,0,0,0,0,0,0,0,0,0,0,0,0,0,0,0,0,0,0,0,0,0,0,0,0,0,0,0,0,0,0,0,0,0,0,0,0,0,0,0,0,0,0,0,0,0,0,0,0,0,0,3.4959,3.4958,0,3.4913,3.4913,3.4912,3.4929,3.493,3.4931,3.4932,3.4873,3.487,3.4868,0,0,0,0,0,0,0,0,0,0,0,0,0,3.5052,3.505,3.4959,3.4958,3.4958,3.4913,3.4913,3.4912,3.4929,3.493,3.4931,3.4932,3.4874,3.4871,3.4867,0,0,0,0,0,0,0,0,0,0,0,0,0,3.5009,3.505,3.4959,3.4961,3.4961,3.4913,3.4913,3.4912,3.4928,3.493,3.4932,3.4933,3.4875,3.4871,3.4867,3.4811,0,0,3.4855,3.4854,0,0,0,0,0,0,0,0,3.5011,3.5006,3.4961,3.4961,3.4961,3.4929,3.4924,3.4878,3.4928,3.494,3.4932,3.4934,3.4889,3.4884,3.4872,3.4808,3.4806,3.4855,3.4853,3.4851,3.485,0,0,0,0,0,0,0,3.5014,3.5008,3.494,3.4961,3.496,3.4961,3.4957,3.4915,3.4906,3.4939,3.4941,3.4936,3.4889,3.4875,3.487,3.4805,3.4855,3.4852,3.4849,3.4848,3.4695,3.4693,0,0,0,0,0,0,3.5019,3.501,3.4942,3.4939,3.4991,3.4958,3.4954,3.4937,3.4907,3.4904,3.4934,3.4936,3.4881,3.4875,3.4868,3.4801,3.4851,3.4847,3.4845,3.4696,3.4694,3.4692,0,0,0,0,0,0,3.5021,3.5013,3.4944,3.4975,3.4966,3.4955,3.4936,3.4935,3.4922,3.4903,3.49,3.4922,3.4882,3.4874,3.4827,3.4799,3.4846,3.4842,3.4699,3.4696,3.4693,3.4666,0,0,0,0,0,0,3.5024,3.5013,3.4994,3.4975,3.4965,3.4905,3.4935,3.4933,3.4916,3.4919,3.4891,3.4888,3.4883,3.4832,3.4823,3.4795,3.4839,3.4701,3.4697,3.4694,3.4669,3.4663,3.4657,0,0,0,0,0,3.5027,3.4985,3.4993,3.4984,3.494,3.4903,3.4897,3.4896,3.4914,3.4893,3.4882,3.4889,3.4805,3.4827,3.4817,3.4787,3.4702,3.4698,3.4695,3.4672,3.4664,3.4657,0,0,0,0,0,0,3.4995,3.4982,3.499,3.4942,3.4924,3.4906,3.4879,3.4888,3.4861,3.4864,3.486,3.4854,3.4805,3.4792,3.4817,3.4732,3.4756,3.475,3.4742,3.4734,3.4729,3.4731,3.4836,0,0,0,0,0,3.4984,3.4958,3.4947,3.4904,3.4896,3.489,3.4873,3.4875,3.4855,3.4846,3.4831,3.4808,3.4777,3.4755,3.4725,3.4669,3.4662,3.4644,3.4638,3.4633,3.4626,3.4595,3.4587,3.468,3.468,3.468,0,0,3.4957,3.4947,3.493,3.4898,3.4885,3.4855,3.4883,3.485,3.4827,3.4839,3.4794,3.4783,3.4758,3.4706,3.4682,3.4693,3.46,3.4628,3.4624,3.462,3.459,3.4582,3.4574,3.4677,3.4677,3.4678,0,0,3.4894,3.4885,3.4849,3.4837,3.4818,3.4815,3.4807,3.4789,3.4783,3.474,3.4749,3.4721,3.4667,3.4649,3.4632,3.4568,3.4573,3.4559,3.4525,3.4495,3.4488,3.4481,3.4457,3.4448,3.4553,3.4553,3.4553,0,3.4861,3.4821,3.4828,3.4796,3.4781,3.4798,3.476,3.4747,3.4717,3.4705,3.472,3.4656,3.4639,3.4583,3.4569,3.4555,3.4544,3.4559,3.449,3.4483,3.4477,3.4453,3.4444,3.4551,3.4551,3.4551,3.4551,0,3.4782,3.4754,3.4727,3.4704,3.4687,3.4652,3.4652,3.4633,3.4638,3.4632,3.4588,3.457,3.4538,3.4526,3.4527,3.447,3.4478,3.4491,3.4514,3.4466,3.4443,3.4435,3.4548,3.4549,3.455,3.455,0,0,3.4691,3.4678,3.4667,3.4658,3.4641,3.4618,3.4584,3.4558,3.4541,3.4522,3.4491,3.4449,3.4462,3.4444,3.4444,3.4419,3.4368,3.4435,3.4434,3.4421,3.4303,3.429,3.428,3.4374,3.4372,3.4371,3.4304,0,3.4625,3.4569,3.4577,3.4522,3.4495,3.4513,3.4484,3.4469,3.4465,3.444,3.4434,3.4403,3.4424,3.4413,3.4389,3.4379,3.4343,3.4385,3.4341,3.434,3.4344,3.4269,3.4254,3.4192,3.4296,3.4294,3.4293,0,3.4538,3.4521,3.4465,3.4455,3.4444,3.4418,3.4395,3.4373,3.4356,3.4355,3.4338,3.4344,3.4308,3.4337,3.4286,3.4314,3.4297,3.429,3.4288,3.428,3.431,3.4255,3.4172,3.4162,3.428,3.4281,3.4282,0,3.4475,3.4438,3.44,3.4392,3.438,3.4361,3.4354,3.4341,3.4325,3.4305,3.4294,3.4268,3.4253,3.4232,3.4231,3.4252,3.4179,3.4207,3.4174,3.4174,3.4153,3.4153,3.4063,3.4149,3.4149,3.4149,3.415,0,3.4397,3.4361,3.4372,3.4348,3.4308,3.4318,3.4278,3.4273,3.4262,3.4236,3.425,3.4224,3.4226,3.42,3.4199,3.4156,3.4149,3.4145,3.4144,3.4141,3.4142,3.4127,3.413,3.4147,3.4147,3.4148,3.4148,0,3.4317,3.4323,3.4283,3.4278,3.4275,3.4246,3.424,3.4216,3.4217,3.4183,3.4176,3.4173,3.4144,3.4143,3.4107,3.4106,3.4054,3.4059,3.406,3.4059,3.4025,3.4027,3.3918,3.3904,3.4003,3.4002,3.4002,0,3.4264,3.4238,3.4232,3.4218,3.4212,3.4188,3.4174,3.4183,3.4167,3.415,3.4128,3.4101,3.4079,3.4031,3.4024,3.3997,3.4,3.3964,3.3995,3.3994,3.3996,3.3996,3.3992,3.3956,3.3955,3.3954,3.3953,0,3.417,3.4177,3.4157,3.414,3.4124,3.411,3.4097,3.4083,3.4092,3.4073,3.4046,3.4029,3.3997,3.3968,3.3944,3.3934,3.3943,3.3945,3.3935,3.3929,3.393,3.3927,3.4039,3.3945,3.3946,3.3947,3.3947,3.3947,3.41,3.4078,3.4072,3.405,3.4043,3.4032,3.401,3.401,3.3989,3.3965,3.3972,3.3941,3.3928,3.3896,3.3886,3.3859,3.3871,3.3857,3.3853,3.3849,3.3844,3.3939,3.3855,3.3855,3.3856,3.3856,3.3856,0,3.4004,3.4003,3.3984,3.3968,3.3951,3.397,3.3957,3.394,3.3914,3.3904,3.3884,3.3853,3.3827,3.3821,3.3796,3.3776,3.378,3.3769,3.3768,3.3765,3.3836,3.3846,3.3766,3.3766,3.3766,3.3766,3.3766,3.3767,3.3952,3.3916,3.3922,3.3882,3.388,3.3853,3.3844,3.3834,3.3825,3.3791,3.3772,3.3771,3.3761,3.3737,3.3713,3.3712,3.37,3.3687,3.3687,3.3751,3.376,3.3769,3.3778,3.3685,3.3685,3.3618,3.3617,3.3617]}]]